COSMOS 2426 (717) (29671 NORAD) Tracking and Keplerian Element Data

This shows tracking and keplerian element data for the satellite.

Feedback or suggestion? Click here.




ElementValue
Catalog29671
NameCOSMOS 2426 (717)
Epoch Orbit9261
Epoch Day322.95701638
Epoch Year2018
RAAN287.4038
Inclination65.2239
Eccentricity0.0017596
Argument of Perigee173.784
Mean Anonmoly48.3106
Mean Motion2.13103058
Decay Rate-9E-08
L11 29671U 06062B 18322.95701638 -.00000009 00000-0 10000-3 0 9998
L22 29671 65.2239 287.4038 0017596 173.7840 48.3106 2.13103058 92617

Live tracking and technical data element details for COSMOS 2426 (717) (NORAD 29671). COSMOS 2426 (717) can be tracked NOW for your location showing map with azimuth and elevation plus other details from your city location.

Track the satellite on the map from your city or location and see movement details for azimuth, elevation, latitude, longitude, range, height, and movement on the map or in text.







IsCatalogInMostPopularTable: catalog: 29671, numindb: 65
Update: records affected: 1



GetName: 29671 COSMOS 2426 (717)

Hit Count: updated at: Mon, 19 Nov 2018 23:58:51 GMT